Location: Lafig�re
(44.4503°N, 4.0357°E)
Time: 15:53:44
(UTC+00:00)

CENTAUR R/B - Pass Details

Date: 24 September 2020
Orbit: 755 x 1433 km, 63.4° (Epoch: 02 October)

Event Time Altitude Azimuth Distance (km) Brightness Sun altitude
Rises 20:06:12 0° 318° (NW) 4,225 6.9 -26.5°
Reaches altitude 10° 20:09:02 10° 312° (NW) 3,332 6.2 -27.0°
Maximum altitude 20:16:45 44° 245° (WSW) 1,843 4.0 -28.2°
Enters shadow 20:22:01 22° 187° (S) 2,693 4.5 -29.0°
